TimePST,TemperatureF,Dew PointF,Humidity,Sea Level PressureIn,VisibilityMPH,Wind Direction,Wind SpeedMPH,Gust SpeedMPH,PrecipitationIn,Events,Conditions,WindDirDegrees,DateUTC
12:29 AM,28.4,28.4,100,30.35,7.0,Calm,Calm,-,N/A,,Scattered Clouds,0,2013-01-02 08:29:00
12:53 AM,30.0,28.0,92,30.37,7.0,Calm,Calm,-,N/A,,Partly Cloudy,0,2013-01-02 08:53:00
1:53 AM,28.9,27.0,92,30.35,7.0,Calm,Calm,-,N/A,,Clear,0,2013-01-02 09:53:00
2:53 AM,32.0,30.0,92,30.34,10.0,Calm,Calm,-,N/A,,Clear,0,2013-01-02 10:53:00
3:53 AM,28.4,26.6,93,30.31,7.0,Calm,Calm,-,N/A,,Clear,0,2013-01-02 11:53:00
4:53 AM,28.9,28.0,96,30.32,7.0,Calm,Calm,-,N/A,,Clear,0,2013-01-02 12:53:00
5:53 AM,30.0,28.0,92,30.31,8.0,Calm,Calm,-,N/A,,Clear,0,2013-01-02 13:53:00
6:53 AM,28.4,26.6,93,30.30,7.0,Calm,Calm,-,N/A,,Clear,0,2013-01-02 14:53:00
7:53 AM,27.0,25.0,92,30.31,6.0,Calm,Calm,-,N/A,,Clear,0,2013-01-02 15:53:00
8:53 AM,28.0,27.0,96,30.32,6.0,SE,5.8,-,N/A,,Clear,140,2013-01-02 16:53:00
9:53 AM,32.0,28.9,88,30.33,7.0,Calm,Calm,-,N/A,,Clear,0,2013-01-02 17:53:00
10:53 AM,35.1,28.9,78,30.32,8.0,Calm,Calm,-,N/A,,Clear,0,2013-01-02 18:53:00
11:53 AM,43.0,27.0,53,30.30,10.0,SSE,3.5,-,N/A,,Clear,150,2013-01-02 19:53:00
12:53 PM,45.0,26.1,48,30.28,10.0,SSE,4.6,-,N/A,,Clear,160,2013-01-02 20:53:00
1:53 PM,46.9,21.9,37,30.27,10.0,SE,6.9,-,N/A,,Unknown,140,2013-01-02 21:53:00
2:53 PM,46.0,21.0,37,30.26,10.0,SSE,6.9,-,N/A,,Clear,150,2013-01-02 22:53:00
3:53 PM,44.1,21.0,40,30.27,10.0,SSE,5.8,-,N/A,,Clear,150,2013-01-02 23:53:00
4:53 PM,41.0,21.9,47,30.26,10.0,SE,5.8,-,N/A,,Clear,130,2013-01-03 00:53:00
5:53 PM,39.9,19.9,45,30.26,10.0,ESE,4.6,-,N/A,,Clear,110,2013-01-03 01:53:00
6:53 PM,39.0,19.9,46,30.25,10.0,ESE,4.6,-,N/A,,Clear,110,2013-01-03 02:53:00
7:53 PM,37.9,19.0,47,30.24,10.0,Calm,Calm,-,N/A,,Clear,0,2013-01-03 03:53:00
8:53 PM,36.0,19.0,50,30.23,10.0,SE,3.5,-,N/A,,Clear,140,2013-01-03 04:53:00
9:53 PM,37.9,19.0,47,30.23,10.0,East,9.2,17.3,N/A,,Clear,80,2013-01-03 05:53:00
10:53 PM,33.1,19.9,59,30.22,10.0,Calm,Calm,-,N/A,,Clear,0,2013-01-03 06:53:00
11:53 PM,30.2,23.0,75,30.20,10.0,Calm,Calm,-,N/A,,Clear,0,2013-01-03 07:53:00